Simultaneous Nadir Overpasses (SNOs) Predictions

Prediction of SNOs between LANDSAT-8 and METOP-B Satellite Orbit:

Table of predicted SNOs for the next 14.0 days since TLE Epoch: 3/28/2020
Index Date (LANDSAT-8) Time (LANDSAT-8) Lat,Lon (LANDSAT-8) SZA (LANDSAT-8 ) Date (METOP-B) Time (METOP-B) Lat,Lon (METOP-B) SZA (METOP-B ) Distance(km) Time Diff (sec)
1 03/30/2020 08:14:26 -81.09, -84.72 101.06 03/30/2020 08:13:54 -81.08, -84.79 101.08 1.33 32
2 03/30/2020 09:03:51 81.11, 83.34 79.00 03/30/2020 09:04:33 81.11, 83.24 79.00 1.67 42
3 04/02/2020 03:48:39 -81.10, -18.11 102.09 04/02/2020 03:48:16 -81.10, -18.02 102.09 1.57 23
4 04/02/2020 04:38:04 81.12, 149.91 77.96 04/02/2020 04:38:55 81.12, 150.01 77.99 1.70 51
5 04/04/2020 23:22:53 -81.08, 48.10 103.18 04/04/2020 23:22:40 -81.08, 47.99 103.19 1.87 13
6 04/05/2020 00:12:17 81.11,-143.91 76.87 04/05/2020 00:13:18 81.11,-143.99 76.89 1.43 61
7 04/07/2020 18:57:05 -81.09, 114.64 104.20 04/07/2020 18:57:01 -81.10, 114.74 104.18 1.84 4
8 04/07/2020 19:46:30 81.11, -77.39 75.84 04/07/2020 19:47:40 81.12, -77.25 75.89 2.67 70
9 04/10/2020 13:41:52 81.07, 13.09 74.74 04/10/2020 13:40:45 81.07, 13.10 74.72 0.50 67




NCC Satellite Simultaneous Nadir Overpasses (SNOs) Prediction Service
